[[{"header":{"parameterUnit":"m.s-1","parameterCategory":1,"la1":30.2991,"la2":30.254,"lo1":-89.0895,"lo2":-89.0444,"dx":0.0017,"dy":0.0017,"nx":28,"ny":28,"refTime":"2022-12-14T15:00:00:Z","depth":0,"parameterNumber":2,"parameterNumberName":"U-component_of_WINDS"},"data":[0,0,0,0,0,0,0,0,0,0,0,0,0,0,0,0,0,0,0,0,0,0,0,0,0,0,0,0,0,0,0,0,0,0,0,0,0,0,0,0,0,0,0,0,0,0,0,0,0,0,0,0,0,0,0,0,0,0,2.7436,2.7436,0,2.7447,2.7447,2.7447,2.74,2.7399,2.7397,2.7396,2.7407,2.7408,2.741,0,0,0,0,0,0,0,0,0,0,0,0,0,2.7374,2.7376,2.7436,2.7436,2.7436,2.7447,2.7447,2.7447,2.74,2.7399,2.7397,2.7395,2.7406,2.7408,2.741,0,0,0,0,0,0,0,0,0,0,0,0,0,2.7395,2.7376,2.7436,2.7414,2.7412,2.7447,2.7447,2.7447,2.7401,2.7399,2.7397,2.7395,2.7406,2.7408,2.741,2.7467,0,0,2.7418,2.7419,0,0,0,0,0,0,0,0,2.7394,2.7397,2.7417,2.7415,2.7413,2.742,2.7429,2.7454,2.7401,2.7405,2.7396,2.7394,2.7413,2.7415,2.7421,2.7467,2.7467,2.7418,2.7419,2.742,2.7421,0,0,0,0,0,0,0,2.7392,2.7396,2.744,2.7417,2.7415,2.7404,2.7405,2.7434,2.742,2.7404,2.7401,2.7403,2.7411,2.7419,2.7421,2.7468,2.7418,2.742,2.7421,2.7422,2.7563,2.7565,0,0,0,0,0,0,2.7394,2.7396,2.744,2.744,2.7398,2.7407,2.7407,2.742,2.742,2.7418,2.7405,2.7401,2.7416,2.7418,2.7421,2.7488,2.742,2.7422,2.7424,2.756,2.7563,2.7566,0,0,0,0,0,0,2.7393,2.7398,2.7439,2.7417,2.7422,2.741,2.7425,2.7421,2.7429,2.742,2.7418,2.7415,2.7414,2.7418,2.7456,2.7488,2.7423,2.7426,2.7558,2.7561,2.7564,2.7622,0,0,0,0,0,0,2.7391,2.7398,2.7419,2.7418,2.7423,2.7474,2.7426,2.7423,2.7433,2.7428,2.7429,2.7427,2.7413,2.7453,2.7459,2.749,2.7427,2.7555,2.7559,2.7563,2.7617,2.7627,2.7635,0,0,0,0,0,2.7389,2.7434,2.742,2.7426,2.7449,2.7476,2.7479,2.7462,2.7436,2.7457,2.7452,2.7427,2.7484,2.7457,2.7463,2.7496,2.7552,2.7558,2.7563,2.7613,2.7625,2.7635,0,0,0,0,0,0,2.7438,2.7433,2.7418,2.7464,2.7471,2.7468,2.7494,2.7475,2.7488,2.7483,2.7461,2.7462,2.7504,2.7504,2.7474,2.7551,2.7514,2.752,2.755,2.7561,2.757,2.7569,2.7429,0,0,0,0,0,2.7454,2.7477,2.7471,2.7513,2.7517,2.7505,2.7516,2.7503,2.7509,2.7511,2.7509,2.7516,2.7535,2.7548,2.7565,2.7617,2.7618,2.7643,2.7652,2.766,2.7665,2.7695,2.7706,2.7583,2.7583,2.7582,0,0,2.7488,2.7488,2.7503,2.7523,2.7526,2.755,2.7508,2.7534,2.7552,2.7515,2.7551,2.755,2.7557,2.7603,2.7622,2.7603,2.77,2.7666,2.7672,2.7674,2.7701,2.7713,2.7723,2.7586,2.7585,2.7585,0,0,2.7561,2.7563,2.7599,2.7604,2.7611,2.7603,2.7612,2.7612,2.761,2.7647,2.762,2.7641,2.7674,2.7681,2.7688,2.7767,2.7745,2.7774,2.7821,2.785,2.7859,2.7868,2.7897,2.7908,2.778,2.778,2.778,0,2.7602,2.7637,2.7619,2.7649,2.7658,2.7627,2.7663,2.7669,2.7681,2.7689,2.7668,2.7711,2.7712,2.776,2.778,2.7787,2.7797,2.7773,2.7859,2.7868,2.7876,2.7903,2.7914,2.7783,2.7783,2.7782,2.7782,0,2.7687,2.7712,2.774,2.7754,2.7767,2.7799,2.7787,2.7803,2.7789,2.7784,2.7822,2.7824,2.7842,2.7852,2.7838,2.7899,2.7887,2.7863,2.7825,2.7891,2.7917,2.7927,2.7788,2.7787,2.7786,2.7785,0,0,2.7789,2.7795,2.7805,2.7812,2.7818,2.7838,2.787,2.7888,2.7902,2.7912,2.7939,2.797,2.7948,2.7957,2.7944,2.7969,2.8034,2.7942,2.7942,2.796,2.8101,2.812,2.8132,2.802,2.8021,2.8023,2.8101,0,2.7862,2.7917,2.7903,2.7958,2.7982,2.7954,2.7982,2.799,2.7987,2.8007,2.8003,2.8025,2.7995,2.8,2.8024,2.8021,2.8062,2.8015,2.8045,2.8046,2.8044,2.8145,2.8164,2.8237,2.8111,2.8113,2.8114,0,2.7953,2.7969,2.8026,2.8031,2.804,2.8066,2.8083,2.8102,2.8111,2.8107,2.8118,2.8101,2.8133,2.8096,2.8141,2.8109,2.8121,2.8122,2.8124,2.8126,2.8084,2.815,2.826,2.8272,2.8129,2.8128,2.8127,0,2.8023,2.8058,2.8097,2.8104,2.811,2.8129,2.8132,2.8139,2.8152,2.8167,2.8175,2.8193,2.8204,2.8219,2.8207,2.8181,2.8255,2.8216,2.8253,2.8253,2.8269,2.8268,2.8383,2.8277,2.8277,2.8276,2.8276,0,2.8106,2.8142,2.8129,2.8153,2.8194,2.8179,2.8219,2.822,2.8226,2.8251,2.8228,2.8251,2.8235,2.8257,2.8248,2.8288,2.8292,2.829,2.8288,2.8293,2.8293,2.83,2.8294,2.8279,2.8279,2.8278,2.8278,0,2.819,2.8183,2.8224,2.8228,2.823,2.826,2.8262,2.8285,2.8282,2.8313,2.8319,2.8313,2.8338,2.8329,2.8355,2.8349,2.84,2.8391,2.8398,2.8395,2.8433,2.843,2.8556,2.8572,2.8456,2.8457,2.8458,0,2.8243,2.8271,2.8278,2.8293,2.8299,2.8323,2.8337,2.8323,2.8338,2.8352,2.8373,2.8397,2.8415,2.8457,2.8454,2.8475,2.8466,2.8509,2.8469,2.8474,2.8468,2.8466,2.8469,2.8517,2.8518,2.8519,2.852,0,2.8338,2.8334,2.8355,2.8375,2.8392,2.8407,2.842,2.8433,2.8421,2.8439,2.8465,2.8479,2.8508,2.8532,2.8551,2.8554,2.8536,2.8533,2.8543,2.8548,2.8551,2.8551,2.842,2.853,2.8529,2.8528,2.8528,2.8527,2.8409,2.8433,2.8443,2.8467,2.8476,2.8489,2.8511,2.8511,2.8533,2.8555,2.8546,2.8577,2.8586,2.861,2.8617,2.8641,2.8624,2.8638,2.8642,2.8646,2.8651,2.8548,2.8645,2.8644,2.8644,2.8644,2.8644,0,2.8504,2.8509,2.8532,2.8551,2.8571,2.8553,2.8567,2.8584,2.8612,2.8623,2.8642,2.8673,2.8697,2.8697,2.872,2.8739,2.8731,2.8745,2.8744,2.8745,2.8664,2.8654,2.8751,2.8751,2.8751,2.8751,2.8751,2.8751,2.8555,2.8596,2.8593,2.8638,2.8643,2.8673,2.8683,2.8696,2.8705,2.8741,2.8761,2.8762,2.8769,2.8792,2.8814,2.8813,2.8823,2.884,2.8837,2.8761,2.8751,2.874,2.873,2.8843,2.8843,2.8916,2.8917,2.8917]},{"header":{"parameterUnit":"m.s-1","parameterCategory":1,"la1":30.2991,"la2":30.254,"lo1":-89.0895,"lo2":-89.0444,"dx":0.0017,"dy":0.0017,"nx":28,"ny":28,"refTime":"2022-12-14T15:00:00:Z","depth":0,"parameterNumber":3,"parameterNumberName":"V-component_of_WINDS"},"data":[0,0,0,0,0,0,0,0,0,0,0,0,0,0,0,0,0,0,0,0,0,0,0,0,0,0,0,0,0,0,0,0,0,0,0,0,0,0,0,0,0,0,0,0,0,0,0,0,0,0,0,0,0,0,0,0,0,0,-4.8179,-4.818,0,-4.8334,-4.8336,-4.8338,-4.8342,-4.834,-4.8338,-4.8337,-4.8494,-4.85,-4.8506,0,0,0,0,0,0,0,0,0,0,0,0,0,-4.7885,-4.789,-4.8178,-4.818,-4.8182,-4.8334,-4.8336,-4.8338,-4.8342,-4.834,-4.8338,-4.8336,-4.8492,-4.8499,-4.8507,0,0,0,0,0,0,0,0,0,0,0,0,0,-4.8024,-4.7892,-4.8178,-4.8203,-4.8207,-4.8333,-4.8336,-4.8339,-4.8343,-4.834,-4.8337,-4.8335,-4.849,-4.8499,-4.8508,-4.862,0,0,-4.8535,-4.8539,0,0,0,0,0,0,0,0,-4.8016,-4.8034,-4.8197,-4.8201,-4.8206,-4.8316,-4.829,-4.8433,-4.8344,-4.8291,-4.8337,-4.8333,-4.8437,-4.845,-4.8486,-4.8627,-4.8634,-4.8536,-4.8541,-4.8545,-4.8547,0,0,0,0,0,0,0,-4.8006,-4.8028,-4.824,-4.82,-4.8205,-4.8206,-4.8223,-4.8317,-4.8378,-4.8295,-4.8296,-4.8315,-4.8439,-4.8477,-4.8489,-4.8636,-4.8535,-4.8543,-4.8549,-4.8552,-4.888,-4.8883,0,0,0,0,0,0,-4.7992,-4.802,-4.8235,-4.8245,-4.8102,-4.8214,-4.8232,-4.8283,-4.8377,-4.8389,-4.8317,-4.8314,-4.8463,-4.8479,-4.8495,-4.8634,-4.8545,-4.8553,-4.8558,-4.8876,-4.888,-4.8884,0,0,0,0,0,0,-4.7985,-4.8011,-4.8229,-4.8132,-4.816,-4.8222,-4.8279,-4.8288,-4.8326,-4.8393,-4.8404,-4.8345,-4.8461,-4.8482,-4.8589,-4.8639,-4.8557,-4.8565,-4.8872,-4.8878,-4.8882,-4.8912,0,0,0,0,0,0,-4.7977,-4.8008,-4.8052,-4.8133,-4.8165,-4.8321,-4.8282,-4.8293,-4.8342,-4.834,-4.8422,-4.8433,-4.8461,-4.8576,-4.8598,-4.865,-4.8572,-4.8868,-4.8875,-4.8881,-4.8907,-4.8917,-4.8926,0,0,0,0,0,-4.7966,-4.8053,-4.8054,-4.808,-4.8221,-4.8323,-4.8342,-4.8372,-4.8346,-4.839,-4.8433,-4.8431,-4.863,-4.8587,-4.8612,-4.8667,-4.8865,-4.8873,-4.888,-4.8902,-4.8915,-4.8926,0,0,0,0,0,0,-4.7974,-4.8064,-4.8066,-4.8181,-4.8245,-4.8324,-4.838,-4.8385,-4.8456,-4.8451,-4.8486,-4.8504,-4.8611,-4.865,-4.86,-4.8782,-4.8745,-4.8757,-4.8753,-4.8766,-4.8775,-4.8764,-4.858,0,0,0,0,0,-4.799,-4.8066,-4.814,-4.8235,-4.8267,-4.8318,-4.8364,-4.8382,-4.8449,-4.8476,-4.8527,-4.8592,-4.8669,-4.8719,-4.8794,-4.8912,-4.8931,-4.8963,-4.8973,-4.898,-4.8991,-4.9058,-4.9074,-4.8909,-4.8909,-4.8908,0,0,-4.8022,-4.808,-4.8126,-4.8238,-4.8289,-4.8368,-4.8341,-4.8424,-4.8483,-4.8488,-4.8593,-4.8633,-4.8708,-4.8821,-4.8873,-4.8857,-4.9041,-4.899,-4.8996,-4.9003,-4.9068,-4.9083,-4.9097,-4.8914,-4.8913,-4.8912,0,0,-4.8121,-4.8172,-4.8258,-4.831,-4.8389,-4.8423,-4.8444,-4.8523,-4.855,-4.8656,-4.8662,-4.8732,-4.8865,-4.8918,-4.8963,-4.9084,-4.9085,-4.9108,-4.9159,-4.9224,-4.9237,-4.9249,-4.9293,-4.9309,-4.9118,-4.9118,-4.9118,0,-4.8151,-4.8269,-4.8301,-4.8386,-4.8435,-4.8445,-4.8533,-4.8582,-4.868,-4.8715,-4.8694,-4.8862,-4.8913,-4.904,-4.907,-4.9105,-4.913,-4.9098,-4.9233,-4.9245,-4.9256,-4.9299,-4.9316,-4.9121,-4.912,-4.912,-4.912,0,-4.8303,-4.8385,-4.8445,-4.8542,-4.8598,-4.8683,-4.8728,-4.8782,-4.8796,-4.8832,-4.894,-4.9002,-4.909,-4.9122,-4.9135,-4.9252,-4.9239,-4.9225,-4.9188,-4.9274,-4.9315,-4.9331,-4.9124,-4.9123,-4.9122,-4.9122,0,0,-4.841,-4.8525,-4.8546,-4.8591,-4.868,-4.8744,-4.883,-4.8918,-4.8963,-4.9031,-4.9105,-4.9218,-4.9207,-4.9258,-4.9278,-4.9335,-4.9429,-4.9314,-4.9317,-4.9335,-4.9562,-4.9573,-4.9591,-4.943,-4.9433,-4.9436,-4.9557,0,-4.852,-4.8674,-4.8706,-4.884,-4.8917,-4.8929,-4.9004,-4.9067,-4.9103,-4.9174,-4.9214,-4.9295,-4.9273,-4.9304,-4.9361,-4.9405,-4.9475,-4.9397,-4.95,-4.9503,-4.9481,-4.9612,-4.9623,-4.9734,-4.9573,-4.9575,-4.9577,0,-4.8668,-4.8741,-4.8883,-4.8963,-4.8997,-4.9064,-4.9148,-4.9215,-4.9287,-4.931,-4.9367,-4.9382,-4.9473,-4.9432,-4.9558,-4.9504,-4.9548,-4.9577,-4.9582,-4.9593,-4.9546,-4.9628,-4.977,-4.9787,-4.9603,-4.9601,-4.9599,0,-4.8733,-4.8867,-4.897,-4.9008,-4.9103,-4.9151,-4.9193,-4.9262,-4.9313,-4.9386,-4.942,-4.9502,-4.9548,-4.9611,-4.9648,-4.9614,-4.9772,-4.9734,-4.9794,-4.9793,-4.9827,-4.9824,-4.9979,-4.9854,-4.9854,-4.9853,-4.9853,0,-4.8853,-4.8939,-4.9001,-4.9064,-4.9162,-4.9198,-4.9294,-4.9336,-4.9397,-4.9469,-4.9484,-4.9551,-4.9595,-4.9668,-4.9697,-4.9798,-4.9818,-4.984,-4.9847,-4.9839,-4.9837,-4.9869,-4.9862,-4.9858,-4.9857,-4.9856,-4.9855,0,-4.8942,-4.8987,-4.91,-4.9182,-4.9205,-4.9273,-4.9344,-4.9406,-4.9443,-4.9534,-4.9557,-4.9616,-4.9704,-4.9746,-4.9855,-4.9874,-4.9989,-4.999,-4.9965,-4.9968,-5.0027,-5.0021,-5.0208,-5.0235,-5.0091,-5.0092,-5.0093,0,-4.9016,-4.9083,-4.9173,-4.9222,-4.9266,-4.9345,-4.9398,-4.9437,-4.9491,-4.9579,-4.9631,-4.9719,-4.9792,-4.9932,-4.9984,-5.0067,-5.0071,-5.0131,-5.0084,-5.0075,-5.0074,-5.007,-5.0077,-5.014,-5.0141,-5.0142,-5.0143,0,-4.9142,-4.9161,-4.9237,-4.9322,-4.9385,-4.9453,-4.952,-4.956,-4.9609,-4.967,-4.976,-4.9817,-4.9929,-5.0017,-5.0104,-5.0148,-5.0154,-5.0158,-5.0176,-5.017,-5.0153,-5.0164,-4.9989,-5.0153,-5.0152,-5.0151,-5.0151,-5.015,-4.9226,-4.9287,-4.9361,-4.9445,-4.95,-4.9563,-4.9626,-4.9672,-4.9749,-4.9843,-4.9861,-4.9957,-5.0029,-5.0148,-5.0194,-5.027,-5.0257,-5.0283,-5.029,-5.0296,-5.03,-5.014,-5.0286,-5.0286,-5.0285,-5.0285,-5.0285,0,-4.9354,-4.9402,-4.948,-4.9574,-4.9641,-4.9643,-4.9718,-4.9773,-4.9858,-4.9925,-4.9997,-5.0101,-5.0187,-5.0247,-5.0335,-5.0384,-5.039,-5.0406,-5.0403,-5.0413,-5.0306,-5.0282,-5.04,-5.04,-5.04,-5.04,-5.04,-5.04,-4.9429,-4.9533,-4.9561,-4.9693,-4.974,-4.9835,-4.9878,-4.9937,-4.999,-5.0107,-5.0179,-5.0218,-5.0282,-5.0375,-5.0454,-5.0469,-5.0501,-5.0518,-5.0533,-5.0433,-5.042,-5.0409,-5.0386,-5.0524,-5.0525,-5.0634,-5.0635,-5.0636]}]]